OpenBCM V2.0.2 (Linux)

Packet Radio Mailbox

IZ3LSV

[San Dona' di P. JN]

 Login: GUEST





  
CX2SA  > KEPS     31.12.07 00:21l 138 Lines 3594 Bytes #999 (0) @ AMSAT
BID : ORB07361.O
Read: GUEST
Subj: Orbital Elements  07361.OSCAR
Path: IZ3LSV<IW2OAZ<CX2SA
Sent: 071228/0251Z @:CX2SA.LAV.URY.SA #:28484 [Minas] FBB7.00e $:ORB07361.O
From: CX2SA@CX2SA.LAV.URY.SA
To  : KEPS@AMSAT


HR AMSAT ORBITAL ELEMENTS FOR OSCAR SATELLITES
FROM WA5QGD FORT WORTH,TX December 27, 2007
Send Subscribe/unsubscribe to KEPS at 
http://www.amsat.org/mailman/listinfo/keps
BID: ORB07361.O
TO ALL RADIO AMATEURS BT

Satellite: PO-63
Catalog number: 29712
Epoch time:      07358.04397519
Element set:      30
Inclination:      097.9014 deg
RA of node:       054.3600 deg
Eccentricity:    0.0013362
Arg of perigee:   230.3691 deg
Mean anomaly:     129.6344 deg
Mean motion:   14.79954504 rev/day
Decay rate:       7.45e-06 rev/day^2
Epoch rev:            5141
Checksum:              295

Satellite: VO-52
Catalog number: 28650
Epoch time:      07360.82000549
Element set:    0815
Inclination:      097.8125 deg
RA of node:       067.0092 deg
Eccentricity:    0.0026939
Arg of perigee:   348.6114 deg
Mean anomaly:     011.4518 deg
Mean motion:   14.81400595 rev/day
Decay rate:       1.28e-06 rev/day^2
Epoch rev:           14293
Checksum:              295

Satellite: AO-40
Catalog number: 26609
Epoch time:      07359.43536579
Element set:    0982
Inclination:      007.1982 deg
RA of node:       105.2455 deg
Eccentricity:    0.7929918
Arg of perigee:   035.6672 deg
Mean anomaly:     356.9093 deg
Mean motion:   01.25583042 rev/day
Decay rate:      -2.69e-06 rev/day^2
Epoch rev:           03284
Checksum:              345

Satellite: SO-33
Catalog number: 25509
Epoch time:      07360.63011926
Element set:    0096
Inclination:      031.4318 deg
RA of node:       217.6972 deg
Eccentricity:    0.0354520
Arg of perigee:   309.5631 deg
Mean anomaly:     047.4176 deg
Mean motion:   14.28186532 rev/day
Decay rate:      -2.68e-06 rev/day^2
Epoch rev:           47878
Checksum:              316

Satellite: FO-29
Catalog number: 24278
Epoch time:      07360.85024287
Element set:    0679
Inclination:      098.5786 deg
RA of node:       294.8536 deg
Eccentricity:    0.0350143
Arg of perigee:   304.3726 deg
Mean anomaly:     052.4744 deg
Mean motion:   13.52934649 rev/day
Decay rate:       -7.1e-07 rev/day^2
Epoch rev:           56095
Checksum:              346

Satellite: RS-15
Catalog number: 23439
Epoch time:      07360.62131522
Element set:    0100
Inclination:      064.8186 deg
RA of node:       055.7220 deg
Eccentricity:    0.0152694
Arg of perigee:   155.7020 deg
Mean anomaly:     205.1200 deg
Mean motion:   11.27552298 rev/day
Decay rate:       -3.9e-07 rev/day^2
Epoch rev:           53539
Checksum:              268

Satellite: UO-11
Catalog number: 14781
Epoch time:      07360.72626987
Element set:    0555
Inclination:      098.1741 deg
RA of node:       026.9778 deg
Eccentricity:    0.0008051
Arg of perigee:   272.0625 deg
Mean anomaly:     087.9657 deg
Mean motion:   14.79606716 rev/day
Decay rate:       3.43e-06 rev/day^2
Epoch rev:           27820
Checksum:              336

Satellite: AO-10
Catalog number: 14129
Epoch time:      07360.87514120
Element set:    0456
Inclination:      025.9518 deg
RA of node:       238.8531 deg
Eccentricity:    0.6043489
Arg of perigee:   084.8473 deg
Mean anomaly:     337.1960 deg
Mean motion:   02.05867970 rev/day
Decay rate:       2.19e-06 rev/day^2
Epoch rev:           18453
Checksum:              321

Satellite: AO-07
Catalog number: 07530
Epoch time:      07360.55490817
Element set:    0062
Inclination:      101.4909 deg
RA of node:       032.7167 deg
Eccentricity:    0.0011867
Arg of perigee:   240.5711 deg
Mean anomaly:     119.4179 deg
Mean motion:   12.53573059 rev/day
Decay rate:       -2.8e-07 rev/day^2
Epoch rev:           51522
Checksum:              287



Read previous mail | Read next mail


 02.05.2026 03:51:27lGo back Go up